Content
SEND FEEDBACK

Daily
Averages
Monthly
Summary
Canada

WATERLOO WELLING, ONTARIO


Home > North America > Canada > Ontario
Elevation: 1031 feet     Latitude: 43 27N     Longitude: 080 23W

WEATHER
 
SELECT A DAY
Number of Records: 267,749;   Date Range: 1/1/95 - 12/18/14
 
SHARE

PRINT THIS DATA

[ ← Previous Day ]
WEATHER ALMANAC - JULY 3, 2013
[ Next Day → ]
[ °C ]   °F
Weather ElementAverageHighLow
Temperature68.4 °F80.6 °F (3:00 pm)57.2 °F (12:36 am)
Dewpoint64.4 °F69.8 °F (1:52 pm)57.2 °F (12:36 am)
Humidity87.5 %100 % (12:36 am)65 % (3:00 pm)
Barometer30.13 in30.16 in (9:38 am)30.09 in (2:00 am)
Wind Speed4.4 mph12.7 mph (5:00 pm)
Wind Gust18.4 mph (5:00 pm)
Weather ElementAverage
Visibility3.9 mi
Wind DirectionESE (105.6 °)

Weather ElementTotal
Precipitation---
Cooling Degree Days3.9 (Base 65)
Growing Degree Days18.9 (Base 50)
Averaged from 62 records on July 3, 2013
WEATHER CONDITIONS BREAKOUT
WIND DIRECTION BREAKOUT
WEATHER BY HOUR - JULY 3, 2013
[ °C ]   °F
Local TimeTemperatureDewpointHumidityBarometerVisibilityWind DirectionWind SpeedGust SpeedPrecipitationEventsConditions
12:36 AM57.2 °F57.2 °F100 %30.11 in2.2 miENE (60°)2.3 mphClear
12:43 AM57.2 °F57.2 °F100 %30.10 in1.8 miNE (50°)2.3 mphClear
12:46 AM57.2 °F57.2 °F100 %30.10 in2.2 miNE (50°)2.3 mphClear
1:00 AM57.2 °F57.2 °F100 %30.10 in2.5 miNE (50°)3.5 mphScattered Clouds
2:00 AM59.0 °F58.0 °F94 %30.09 in2.0 miEast (100°)3.5 mphMist
2:00 AM59.0 °F57.2 °F94 %30.09 in2.5 miESE (110°)4.6 mphMostly Cloudy
2:22 AM59.0 °F59.0 °F100 %30.10 in3.0 miWSW (250°)2.3 mphOvercast
2:34 AM59.0 °F59.0 °F100 %30.10 in2.2 miNW (310°)2.3 mphOvercast
2:46 AM59.0 °F59.0 °F100 %30.10 in1.8 miNorth (360°)3.5 mphMostly Cloudy
3:00 AM59.0 °F59.0 °F100 %30.10 in1.8 miNNW (330°)2.3 mphMostly Cloudy
3:14 AM59.0 °F59.0 °F100 %30.10 in2.0 miNNE (20°)2.3 mphMostly Cloudy
3:19 AM59.0 °F57.2 °F94 %30.10 in1.8 miNE (50°)2.3 mphMostly Cloudy
3:29 AM59.0 °F57.2 °F94 %30.10 in2.0 miENE (60°)2.3 mphPartly Cloudy
3:37 AM59.0 °F57.2 °F94 %30.09 in1.8 miNE (40°)2.3 mphPartly Cloudy
4:00 AM57.2 °F57.2 °F100 %30.09 in1.2 miEast (100°)3.5 mphPartly Cloudy
5:00 AM59.0 °F57.2 °F94 %30.10 in1.2 miCalmMostly Cloudy
6:00 AM59.0 °F59.0 °F100 %30.12 in1.0 miCalmOvercast
7:00 AM60.8 °F59.0 °F94 %30.12 in1.2 miENE (60°)3.5 mphClear
8:00 AM64.0 °F62.0 °F90 %30.14 in1.0 miESE (110°)4.6 mphMist
8:00 AM64.4 °F60.8 °F88 %30.14 in1.2 miESE (110°)4.6 mphPartly Cloudy
8:16 AM64.4 °F62.6 °F94 %30.14 in1.8 miESE (110°)4.6 mphMostly Cloudy
8:30 AM64.4 °F62.6 °F94 %30.15 in2.0 miESE (110°)4.6 mphMostly Cloudy
9:00 AM66.2 °F64.4 °F94 %30.15 in2.5 miENE (70°)5.8 mphMostly Cloudy
9:09 AM68.0 °F64.4 °F88 %30.15 in2.5 miESE (110°)4.6 mphScattered Clouds
9:38 AM69.8 °F64.4 °F83 %30.16 in3.0 miEast (100°)4.6 mphScattered Clouds
9:39 AM69.8 °F64.4 °F83 %30.16 in3.0 miEast (90°)4.6 mphHaze
10:00 AM69.8 °F66.2 °F88 %30.16 in4.0 miSE (130°)8.1 mphHaze
11:00 AM69.8 °F66.2 °F88 %30.16 in3.0 miESE (120°)9.2 mphOvercast
12:00 PM71.6 °F66.2 °F83 %30.16 in3.0 miVariable2.3 mphHaze
12:01 PM71.6 °F66.2 °F83 %30.16 in3.0 miVariable2.3 mphHaze
12:37 PM75.2 °F68.0 °F78 %30.16 in3.0 miSouth (190°)6.9 mphHaze
1:00 PM77.0 °F68.0 °F74 %30.15 in4.0 miSE (130°)4.6 mphHaze
1:12 PM77.0 °F68.0 °F74 %30.15 in4.0 miSSE (150°)6.9 mphHaze
1:52 PM78.8 °F69.8 °F74 %30.14 in5.0 miSE (140°)5.8 mphHaze
2:00 PM78.0 °F69.0 °F67 %30.14 in5.0 miSE (130°)6.9 mphLight Haze
2:00 PM78.8 °F68.0 °F69 %30.13 in5.0 miSSE (150°)9.2 mphHaze
2:46 PM78.8 °F68.0 °F69 %30.13 in5.0 miSouth (170°)8.1 mphHaze
3:00 PM80.6 °F68.0 °F65 %30.13 in6.0 miSouth (180°)6.9 mphHaze
4:00 PM80.6 °F68.0 °F65 %30.11 in9.0 miSSE (150°)6.9 mph17.3 mphPartly Cloudy
5:00 PM77.0 °F66.2 °F69 %30.12 in9.0 miSE (130°)12.7 mph18.4 mphMostly Cloudy
5:19 PM73.4 °F64.4 °F73 %30.13 in9.0 miVariable2.3 mphThunderstormThunderstorm
5:21 PM73.4 °F66.2 °F78 %30.13 in6.0 miVariable3.5 mphRain-ThunderstormLight Thunderstorms and Rain
5:40 PM73.4 °F68.0 °F83 %30.12 in9.0 miNorth (10°)5.8 mphThunderstormThunderstorm
5:42 PM73.4 °F68.0 °F83 %30.12 in9.0 miNorth (350°)6.9 mphThunderstormMostly Cloudy
5:50 PM75.2 °F69.8 °F83 %30.12 in9.0 miNorth (10°)5.8 mphPartly Cloudy
6:00 PM75.2 °F69.8 °F83 %30.12 in9.0 miNNE (20°)4.6 mphPartly Cloudy
7:00 PM77.0 °F68.0 °F74 %30.12 in9.0 miCalmClear
8:00 PM75.2 °F69.8 °F83 %30.13 in9.0 miESE (110°)3.5 mphClear
8:00 PM75.0 °F69.0 °F77 %30.13 in10.0 miESE (110°)3.5 mphClear
9:00 PM71.6 °F68.0 °F88 %30.12 in9.0 miEast (90°)3.5 mphPartly Cloudy
9:13 PM71.6 °F68.0 °F88 %30.12 in2.0 miEast (90°)3.5 mphClear
9:14 PM71.6 °F68.0 °F88 %30.12 in1.5 miEast (90°)3.5 mphClear
9:18 PM71.6 °F68.0 °F88 %30.12 in0.5 miEast (80°)3.5 mphFogFog
9:34 PM69.8 °F68.0 °F94 %30.12 in0.8 miEast (100°)3.5 mphClear
9:40 PM69.8 °F68.0 °F94 %30.12 in2.0 miEast (100°)3.5 mphClear
9:43 PM69.8 °F68.0 °F94 %30.12 in3.0 miESE (110°)3.5 mphClear
9:54 PM69.8 °F68.0 °F94 %30.13 in6.0 miESE (110°)3.5 mphClear
10:00 PM69.8 °F68.0 °F94 %30.13 in6.0 miEast (100°)4.6 mphClear
10:11 PM71.6 °F68.0 °F88 %30.13 in5.0 miESE (110°)4.6 mphMostly Cloudy
10:30 PM71.6 °F69.8 °F94 %30.14 in2.5 miSE (130°)5.8 mphOvercast
11:00 PM69.8 °F68.0 °F94 %30.14 in2.5 miSE (130°)8.1 mphOvercast
11:18 PM69.8 °F68.0 °F94 %30.14 in3.0 miESE (120°)6.9 mphOvercast
Hourly data recorded from CYKF, located miles away from Waterloo Welling, Ontario







STORIES FROM OUR PARTNERS